Time,TemperatureF,DewpointF,PressureIn,WindDirection,WindDirectionDegrees,WindSpeedMPH,WindSpeedGustMPH,Humidity,HourlyPrecipIn,Conditions,Clouds,dailyrainin,SoftwareType,DateUTC
2013-04-12 07:00:00,33.8,33.3,29.87,West,270,0.0,-999.0,98,-99.99,,,0.00,Acu-Link.com,2013-04-12 11:00:00,
2013-04-12 08:44:00,35.6,35.1,29.82,West,270,2.0,-999.0,98,-99.99,,,0.00,Acu-Link.com,2013-04-12 12:44:00,
2013-04-12 08:59:00,35.6,35.1,29.81,South,180,2.7,-999.0,98,-99.99,,,0.01,Acu-Link.com,2013-04-12 12:59:00,
2013-04-12 09:14:00,37.4,36.9,29.79,SE,135,2.7,-999.0,98,-99.99,,,0.01,Acu-Link.com,2013-04-12 13:14:00,
2013-04-12 09:29:00,37.4,36.9,29.78,North,0,2.7,-999.0,98,-99.99,,,0.01,Acu-Link.com,2013-04-12 13:29:00,
2013-04-12 09:45:00,37.4,36.9,29.77,SSE,157,4.0,-999.0,98,-99.99,,,0.01,Acu-Link.com,2013-04-12 13:45:00,
2013-04-12 10:00:00,37.4,36.9,29.76,ESE,112,6.3,-999.0,98,-99.99,,,0.02,Acu-Link.com,2013-04-12 14:00:00,
2013-04-12 10:15:00,37.4,36.9,29.76,South,180,2.7,-999.0,98,-99.99,,,0.08,Acu-Link.com,2013-04-12 14:15:00,
2013-04-12 10:31:00,35.6,35.1,29.77,WSW,247,2.0,-999.0,98,-99.99,,,0.15,Acu-Link.com,2013-04-12 14:31:00,
2013-04-12 11:16:00,35.6,35.1,29.78,SSW,202,3.6,-999.0,98,-99.99,,,0.22,Acu-Link.com,2013-04-12 15:16:00,
2013-04-12 11:32:00,35.6,35.1,29.76,West,270,2.0,-999.0,98,-99.99,,,0.25,Acu-Link.com,2013-04-12 15:32:00,
2013-04-12 11:47:00,35.6,35.1,29.74,West,270,2.7,-999.0,98,-99.99,,,0.26,Acu-Link.com,2013-04-12 15:47:00,
2013-04-12 12:02:00,35.6,35.1,29.75,SSE,157,2.0,-999.0,98,-99.99,,,0.27,Acu-Link.com,2013-04-12 16:02:00,
2013-04-12 12:17:00,35.6,35.1,29.75,WNW,292,2.7,-999.0,98,-99.99,,,0.31,Acu-Link.com,2013-04-12 16:17:00,
2013-04-12 12:32:00,35.6,35.1,29.76,SW,225,4.0,-999.0,98,-99.99,,,0.32,Acu-Link.com,2013-04-12 16:32:00,
2013-04-12 12:48:00,35.6,35.1,29.74,South,180,2.7,-999.0,98,-99.99,,,0.34,Acu-Link.com,2013-04-12 16:48:00,
2013-04-12 13:03:00,35.6,35.1,29.73,SW,225,2.7,-999.0,98,-99.99,,,0.35,Acu-Link.com,2013-04-12 17:03:00,
2013-04-12 13:18:00,37.4,36.9,29.73,SW,225,2.0,-999.0,98,-99.99,,,0.39,Acu-Link.com,2013-04-12 17:18:00,
2013-04-12 13:33:00,37.4,36.9,29.72,SSE,157,2.0,-999.0,98,-99.99,,,0.40,Acu-Link.com,2013-04-12 17:33:00,
2013-04-12 13:48:00,37.4,36.9,29.72,East,90,1.1,-999.0,98,-99.99,,,0.41,Acu-Link.com,2013-04-12 17:48:00,
2013-04-12 14:03:00,37.4,36.9,29.69,SW,225,3.1,-999.0,98,-99.99,,,0.43,Acu-Link.com,2013-04-12 18:03:00,
2013-04-12 14:18:00,39.2,38.7,29.69,SSE,157,1.6,-999.0,98,-99.99,,,0.44,Acu-Link.com,2013-04-12 18:18:00,
2013-04-12 15:35:00,41.0,40.5,29.66,South,180,4.7,-999.0,98,-99.99,,,0.48,Acu-Link.com,2013-04-12 19:35:00,
2013-04-12 15:50:00,41.0,40.5,29.65,South,180,3.1,-999.0,98,-99.99,,,0.50,Acu-Link.com,2013-04-12 19:50:00,
2013-04-12 16:05:00,41.0,40.5,29.64,SW,225,3.1,-999.0,98,-99.99,,,0.50,Acu-Link.com,2013-04-12 20:05:00,
2013-04-12 16:20:00,41.0,40.5,29.64,South,180,3.6,-999.0,98,-99.99,,,0.50,Acu-Link.com,2013-04-12 20:20:00,
2013-04-12 16:35:00,41.0,40.5,29.63,SE,135,1.6,-999.0,98,-99.99,,,0.50,Acu-Link.com,2013-04-12 20:35:00,
2013-04-12 16:54:00,41.0,40.5,29.63,SW,225,2.0,-999.0,98,-99.99,,,0.50,Acu-Link.com,2013-04-12 20:54:00,
2013-04-12 17:09:00,41.0,40.5,29.63,ESE,112,4.7,-999.0,98,-99.99,,,0.50,Acu-Link.com,2013-04-12 21:09:00,
2013-04-12 17:25:00,41.0,40.5,29.63,West,270,2.7,-999.0,98,-99.99,,,0.50,Acu-Link.com,2013-04-12 21:25:00,
2013-04-12 17:40:00,41.0,40.5,29.63,WSW,247,1.6,-999.0,98,-99.99,,,0.50,Acu-Link.com,2013-04-12 21:40:00,
2013-04-12 17:55:00,41.0,40.5,29.62,SSE,157,5.1,-999.0,98,-99.99,,,0.50,Acu-Link.com,2013-04-12 21:55:00,
2013-04-12 18:10:00,41.0,40.5,29.63,SW,225,3.1,-999.0,98,-99.99,,,0.50,Acu-Link.com,2013-04-12 22:10:00,
2013-04-12 18:25:00,41.0,40.5,29.63,South,180,2.0,-999.0,98,-99.99,,,0.50,Acu-Link.com,2013-04-12 22:25:00,
2013-04-12 18:40:00,41.0,40.5,29.63,South,180,3.6,-999.0,98,-99.99,,,0.50,Acu-Link.com,2013-04-12 22:40:00,
2013-04-12 19:11:00,41.0,40.5,29.63,SW,225,1.6,-999.0,98,-99.99,,,0.50,Acu-Link.com,2013-04-12 23:11:00,
2013-04-12 19:26:00,39.2,38.7,29.63,SSW,202,3.6,-999.0,98,-99.99,,,0.50,Acu-Link.com,2013-04-12 23:26:00,
2013-04-12 19:42:00,39.2,38.7,29.63,ESE,112,0.0,-999.0,98,-99.99,,,0.50,Acu-Link.com,2013-04-12 23:42:00,
2013-04-12 19:57:00,39.2,38.7,29.62,ESE,112,2.0,-999.0,98,-99.99,,,0.50,Acu-Link.com,2013-04-12 23:57:00,
2013-04-12 20:12:00,39.2,38.7,29.62,West,270,0.0,-999.0,98,-99.99,,,0.50,Acu-Link.com,2013-04-13 00:12:00,
2013-04-12 20:27:00,39.2,38.7,29.63,WNW,292,1.1,-999.0,98,-99.99,,,0.50,Acu-Link.com,2013-04-13 00:27:00,
2013-04-12 20:43:00,39.2,38.7,29.62,SE,135,0.0,-999.0,98,-99.99,,,0.50,Acu-Link.com,2013-04-13 00:43:00,
2013-04-12 20:58:00,39.2,38.7,29.64,SW,225,0.0,-999.0,98,-99.99,,,0.50,Acu-Link.com,2013-04-13 00:58:00,
2013-04-12 21:13:00,39.2,38.7,29.64,West,270,0.0,-999.0,98,-99.99,,,0.50,Acu-Link.com,2013-04-13 01:13:00,
2013-04-12 21:28:00,39.2,38.7,29.65,SSE,157,0.0,-999.0,98,-99.99,,,0.50,Acu-Link.com,2013-04-13 01:28:00,
2013-04-12 21:43:00,39.2,38.7,29.66,West,270,0.0,-999.0,98,-99.99,,,0.50,Acu-Link.com,2013-04-13 01:43:00,
2013-04-12 21:59:00,37.4,36.9,29.65,West,270,0.0,-999.0,98,-99.99,,,0.50,Acu-Link.com,2013-04-13 01:59:00,
2013-04-12 22:14:00,37.4,36.9,29.65,NE,45,0.0,-999.0,98,-99.99,,,0.50,Acu-Link.com,2013-04-13 02:14:00,
2013-04-12 22:29:00,37.4,36.9,29.65,NE,45,0.0,-999.0,98,-99.99,,,0.50,Acu-Link.com,2013-04-13 02:29:00,
2013-04-12 22:44:00,37.4,36.9,29.66,NNW,337,0.0,-999.0,98,-99.99,,,0.51,Acu-Link.com,2013-04-13 02:44:00,
2013-04-12 22:59:00,37.4,36.9,29.66,WNW,292,0.0,-999.0,98,-99.99,,,0.51,Acu-Link.com,2013-04-13 02:59:00,
2013-04-12 23:14:00,37.4,36.9,29.67,West,270,0.0,-999.0,98,-99.99,,,0.51,Acu-Link.com,2013-04-13 03:14:00,